Regional Weather Roundup
Issued by NWS Little Rock, AR

Home | Current Version | Previous Version | Text Only | Print | Product List | Glossary Off
Versions: 1 2 3 4 5 6 7 8 9 10 11 12 13 14 15 16 17 18 19 20 21 22 23 24 25 26 27 28 29 30 31 32 33 34 35 36 37 38 39 40 41 42 43 44 45 46 47 48 49 50

000
ASUS44 KLZK 281814
RWRLZK

WEATHER ROUNDUP FOR ARKANSAS
NATIONAL WEATHER SERVICE LITTLE ROCK AR
100 PM CDT WED SEP 28 2016

NOTE: "FAIR" INDICATES FEW OR NO CLOUDS BELOW 12,000 FEET WITH NO
SIGNIFICANT WEATHER AND/OR OBSTRUCTIONS TO VISIBILITY.

ARZ001-003-010-029-281900-
NORTHWEST ARKANSAS

CITY           SKY/WX    TMP DP  RH WIND       PRES   REMARKS
FAYETTEVILLE   SUNNY     77  56  48 VRB7      30.01R
6HR MIN TEMP:  50; 6HR MAX TEMP:  78;

FORT SMITH     SUNNY     82  50  32 W10       29.97S
6HR MIN TEMP:  51; 6HR MAX TEMP:  84;

HARRISON       SUNNY     77  52  41 NW10      29.99R
6HR MIN TEMP:  65; 6HR MAX TEMP:  78;

BENTONVILLE    SUNNY     75  50  41 N15       30.03R
6HR MIN TEMP:  55; 6HR MAX TEMP:  75;

ROGERS         SUNNY     75  53  46 N12G20    30.03R
6HR MIN TEMP:  58; 6HR MAX TEMP:  76;

SILOAM SPGS    SUNNY     77  52  41 N14       30.03R
6HR MIN TEMP:  55; 6HR MAX TEMP:  79;

HIGHFILL       SUNNY     78  55  44 N14G21    30.02R
6HR MIN TEMP:  58; 6HR MAX TEMP:  78;

SPRINGDALE     SUNNY     77  55  47 N12       30.03R
$$

ARZ004-005-016-281900-
NORTH CENTRAL ARKANSAS

CITY           SKY/WX    TMP DP  RH WIND       PRES   REMARKS
BATESVILLE     SUNNY     84  55  37 W10       29.91S
6HR MIN TEMP:  57; 6HR MAX TEMP:  84;

FLIPPIN        SUNNY     79  50  36 N10G18    29.93S
6HR MIN TEMP:  52; 6HR MAX TEMP:  79;

MTN HOME       SUNNY     79  53  40 VRB5      29.95R
6HR MIN TEMP:  56; 6HR MAX TEMP:  79;

$$

ARZ040-041-281900-
WEST CENTRAL ARKANSAS

CITY           SKY/WX    TMP DP  RH WIND       PRES   REMARKS
MENA           SUNNY     86  55  35 W10       29.99F
MOUNT IDA      SUNNY     86  52  30 MISG      29.96F
6HR MIN TEMP:  50; 6HR MAX TEMP:  87;

$$

ARZ009-017-025-026-028-281900-
NORTHEAST ARKANSAS

CITY           SKY/WX    TMP DP  RH WIND       PRES   REMARKS
CORNING          N/A     79  57  47 NW9       29.90S
JONESBORO      SUNNY     85  52  32 NW12      29.88S
6HR MIN TEMP:  58; 6HR MAX TEMP:  85;

NEWPORT        SUNNY     85  56  37 W13       29.89F
6HR MIN TEMP:  54; 6HR MAX TEMP:  85;

WALNUT RIDGE   SUNNY     81  55  41 NW9       29.90S
6HR MIN TEMP:  55; 6HR MAX TEMP:  81;

BLYTHEVILLE    MOSUNNY   86  55  34 W13G20    29.88S
6HR MIN TEMP:  57; 6HR MAX TEMP:  86;

NW BLYTHEVILLE MOSUNNY   82  54  36 W17G26    29.88S
$$

ARZ022-023-033-042-044-281900-
CENTRAL ARKANSAS

CITY           SKY/WX    TMP DP  RH WIND       PRES   REMARKS
LITTLE ROCK    SUNNY     87  54  32 SW13      29.93F HX  85
6HR MIN TEMP:  57; 6HR MAX TEMP:  87;

N LITTLE ROCK    N/A     85  57  37 W6        29.91F
6HR MIN TEMP:  60; 6HR MAX TEMP:  85;

JACKSONVILLE   SUNNY     86  53  31 W16G23    29.92F
6HR MIN TEMP:  52; 6HR MAX TEMP:  86;

SEARCY         SUNNY     83  55  38 W8        29.93S
6HR MIN TEMP:  51; 6HR MAX TEMP:  83;

HOT SPRINGS    SUNNY     86  51  29 W8        29.96F
6HR MIN TEMP:  54; 6HR MAX TEMP:  87;

RUSSELLVILLE   SUNNY     82  54  37 NW9       29.94F
6HR MIN TEMP:  50; 6HR MAX TEMP:  82;

$$

ARZ036-281900-
EAST ARKANSAS

CITY           SKY/WX    TMP DP  RH WIND       PRES   REMARKS
WEST MEMPHIS   SUNNY     86  48  26 SW10G21   29.89F
6HR MIN TEMP:  52; 6HR MAX TEMP:  86;

$$

ARZ050-053-066-070-073-281900-
SOUTHWEST ARKANSAS

CITY           SKY/WX    TMP DP  RH WIND       PRES   REMARKS
ARKADELPHIA    FAIR      83  60  45 SW12      29.98F
6HR MIN TEMP:  49; 6HR MAX TEMP:  83;

TEXARKANA      SUNNY     86  50  28 SW7       30.01F
6HR MIN TEMP:  54; 6HR MAX TEMP:  86;

EL DORADO      SUNNY     81  57  43 SW8       30.02F
6HR MIN TEMP:  52; 6HR MAX TEMP:  81;

DE QUEEN       SUNNY     83  58  42 W10       29.98F
6HR MIN TEMP:  48; 6HR MAX TEMP:  84;

$$

ARZ056-057-069-281900-
SOUTHEAST ARKANSAS

CITY           SKY/WX    TMP DP  RH WIND       PRES   REMARKS
PINE BLUFF     SUNNY     83  54  36 W8        29.96F
6HR MIN TEMP:  53; 6HR MAX TEMP:  83;

STUTTGART      SUNNY     88  52  29 SW13G18   29.95F HX  85
6HR MIN TEMP:  55; 6HR MAX TEMP:  88;

MONTICELLO     SUNNY     83  54  36 SW6       29.99F
6HR MIN TEMP:  57; 6HR MAX TEMP:  83;


$$





USA.gov is the U.S. government's official web portal to all federal, state and local government web resources and services.